Cumberland, WI

2:49 AM CDT on May 27, 2017 (GMT -0500)
Cumberland Municipal

Weather History for KUBE - November, 2013

Change the Weather History Date:

Sunday, November 10, 2013

  Actual Average (KRPD) Record (KRPD)
Temperature  
Mean Temperature 36 °F -  
Max Temperature 41 °F 40 °F 64 °F (2016)
Min Temperature 30 °F 26 °F 19 °F (1996)
Degree Days  
Heating Degree Days 30    
Moisture  
Dew Point 27 °F    
Average Humidity 71    
Maximum Humidity 87    
Minimum Humidity 56    
Precipitation  
Precipitation 0.00 in - - ()
Sea Level Pressure  
Sea Level Pressure 30.18 in    
Wind  
Wind Speed 11 mph (West)    
Max Wind Speed 23 mph    
Max Gust Speed 33 mph    
Visibility 10 miles    
Events      
Averages and records for this station are not official NWS values.
T = Trace of Precipitation, MM = Missing Value Source: NWS Daily Summary

Daily Weather History Graph

Daily Weather History Graph

Search for Another Location

Airport or City:

Trip Planner

Search our weather history database for the weather conditions in past years. The results will help you decide how hot, cold, wet, or windy it might be!

Date:

Astronomy

Nov. 10, 2013 Rise Set
Actual Time 7:00 AM CST 4:42 PM CST
Civil Twilight 6:28 AM CST 5:14 PM CST
Nautical Twilight 5:53 AM CST 5:50 PM CST
Astronomical Twilight 5:18 AM CST 6:24 PM CST
Moon 1:07 PM CST (11/10) No Moon Set
Length of Visible Light 10h 45m
Length of Day
9h 42m
First Quarter, 56% of the Moon is Illuminated
Nov 10
First Quarter
Nov 17
Full
Nov 25
Last Quarter
Dec 2
New
Dec 9
First Quarter

Hourly Weather History & Observations

Time (CST) Temp. Windchill Dew Point Humidity Pressure Visibility Wind Dir Wind Speed Gust Speed Precip Events Conditions
12:15 AM 35.6 °F 27.1 °F 28.4 °F 75% 30.11 in 10.0 mi WNW 12.7 mph 18.4 mph N/A   Overcast
12:35 AM 35.6 °F 25.9 °F 28.4 °F 75% 30.12 in 10.0 mi NW 16.1 mph 33.4 mph N/A   Overcast
12:55 AM 35.6 °F 27.1 °F 28.4 °F 75% 30.13 in 10.0 mi NW 12.7 mph 24.2 mph N/A   Overcast
1:15 AM 35.6 °F 24.0 °F 26.6 °F 70% 30.13 in 10.0 mi NW 23.0 mph 31.1 mph N/A   Overcast
1:35 AM 35.6 °F 24.8 °F 26.6 °F 70% 30.14 in 10.0 mi NW 19.6 mph 26.5 mph N/A   Overcast
1:55 AM 35.6 °F 25.5 °F 26.6 °F 70% 30.15 in 10.0 mi NW 17.3 mph 25.3 mph N/A   Overcast
2:15 AM 35.6 °F 26.6 °F 26.6 °F 70% 30.15 in 10.0 mi NW 13.8 mph 27.6 mph N/A   Overcast
2:35 AM 35.6 °F 25.2 °F 26.6 °F 70% 30.16 in 10.0 mi NNW 18.4 mph 26.5 mph N/A   Overcast
2:55 AM 35.6 °F 25.2 °F 26.6 °F 70% 30.17 in 10.0 mi NW 18.4 mph 25.3 mph N/A   Overcast
3:15 AM 33.8 °F 25.8 °F 26.6 °F 75% 30.19 in 10.0 mi NW 10.4 mph 21.9 mph N/A   Overcast
3:35 AM 33.8 °F 25.8 °F 26.6 °F 75% 30.20 in 10.0 mi WNW 10.4 mph 19.6 mph N/A   Overcast
3:55 AM 33.8 °F 23.9 °F 26.6 °F 75% 30.20 in 10.0 mi NW 15.0 mph 19.6 mph N/A   Overcast
4:15 AM 33.8 °F 25.8 °F 26.6 °F 75% 30.21 in 10.0 mi NW 10.4 mph - N/A   Overcast
4:35 AM 33.8 °F 23.9 °F 23.0 °F 65% 30.22 in 10.0 mi NW 15.0 mph - N/A   Overcast
4:55 AM 33.8 °F 24.3 °F 24.8 °F 70% 30.22 in 10.0 mi NNW 13.8 mph 18.4 mph N/A   Overcast
5:15 AM 33.8 °F 25.3 °F 24.8 °F 70% 30.24 in 10.0 mi NW 11.5 mph - N/A   Overcast
5:35 AM 33.8 °F 26.4 °F 26.6 °F 75% 30.24 in 10.0 mi NW 9.2 mph - N/A   Overcast
5:55 AM 33.8 °F 24.8 °F 23.0 °F 65% 30.25 in 10.0 mi NW 12.7 mph - N/A   Overcast
6:15 AM 33.8 °F 25.8 °F 23.0 °F 65% 30.25 in 10.0 mi NW 10.4 mph 19.6 mph N/A   Overcast
6:35 AM 32.0 °F 24.8 °F 23.0 °F 69% 30.25 in 10.0 mi NNW 8.1 mph - N/A   Overcast
6:55 AM 32.0 °F 25.6 °F 23.0 °F 69% 30.25 in 10.0 mi NNW 6.9 mph - N/A   Mostly Cloudy
7:15 AM 30.2 °F 26.7 °F 23.0 °F 75% 30.25 in 10.0 mi WNW 3.5 mph - N/A   Scattered Clouds
7:35 AM 32.0 °F 27.5 °F 26.6 °F 80% 30.25 in 10.0 mi West 4.6 mph - N/A   Clear
7:55 AM 32.0 °F 27.5 °F 24.8 °F 75% 30.26 in 10.0 mi West 4.6 mph - N/A   Clear
8:15 AM 33.8 °F 27.7 °F 24.8 °F 70% 30.27 in 10.0 mi West 6.9 mph - N/A   Clear
8:35 AM 33.8 °F 27.0 °F 24.8 °F 70% 30.28 in 10.0 mi West 8.1 mph - N/A   Clear
8:55 AM 33.8 °F 26.4 °F 23.0 °F 65% 30.28 in 10.0 mi West 9.2 mph - N/A   Clear
9:15 AM 35.6 °F 28.6 °F 24.8 °F 65% 30.28 in 10.0 mi West 9.2 mph - N/A   Clear
9:35 AM 35.6 °F 29.2 °F 23.0 °F 60% 30.28 in 10.0 mi West 8.1 mph - N/A   Clear
9:55 AM 35.6 °F 29.2 °F 24.8 °F 65% 30.28 in 10.0 mi West 8.1 mph - N/A   Clear
10:15 AM 35.6 °F 29.9 °F 23.0 °F 60% 30.27 in 10.0 mi West 6.9 mph - N/A   Clear
10:35 AM 37.4 °F 32.8 °F 24.8 °F 60% 30.26 in 10.0 mi WSW 5.8 mph - N/A   Clear
10:55 AM 37.4 °F 31.4 °F 23.0 °F 56% 30.27 in 10.0 mi West 8.1 mph - N/A   Clear
11:15 AM 37.4 °F 32.8 °F 24.8 °F 60% 30.26 in 10.0 mi SW 5.8 mph - N/A   Clear
11:35 AM 37.4 °F 32.1 °F 24.8 °F 60% 30.25 in 10.0 mi SW 6.9 mph - N/A   Clear
11:55 AM 39.2 °F 33.0 °F 26.6 °F 61% 30.24 in 10.0 mi SW 9.2 mph - N/A   Clear
12:15 PM 41.0 °F 36.4 °F 26.6 °F 57% 30.23 in 10.0 mi WSW 6.9 mph - N/A   Clear
12:35 PM 41.0 °F 35.8 °F 26.6 °F 57% 30.23 in 10.0 mi SW 8.1 mph - N/A   Clear
12:55 PM 41.0 °F 34.3 °F 26.6 °F 57% 30.22 in 10.0 mi WSW 11.5 mph - N/A   Clear
1:15 PM 39.2 °F 31.6 °F 26.6 °F 61% 30.21 in 10.0 mi SW 12.7 mph 17.3 mph N/A   Clear
1:35 PM 39.2 °F 33.0 °F 26.6 °F 61% 30.20 in 10.0 mi SW 9.2 mph - N/A   Clear
1:55 PM 39.2 °F 31.6 °F 26.6 °F 61% 30.20 in 10.0 mi WSW 12.7 mph 17.3 mph N/A   Clear
2:15 PM 39.2 °F 32.0 °F 26.6 °F 61% 30.20 in 10.0 mi WSW 11.5 mph - N/A   Clear
2:35 PM 37.4 °F 29.8 °F 26.6 °F 65% 30.20 in 10.0 mi WSW 11.5 mph - N/A   Clear
2:55 PM 37.4 °F 30.8 °F 26.6 °F 65% 30.19 in 10.0 mi WSW 9.2 mph - N/A   Scattered Clouds
3:15 PM 37.4 °F 31.4 °F 28.4 °F 70% 30.17 in 10.0 mi WSW 8.1 mph - N/A   Scattered Clouds
3:35 PM 37.4 °F 30.8 °F 28.4 °F 70% 30.17 in 10.0 mi SW 9.2 mph - N/A   Mostly Cloudy
3:55 PM 37.4 °F 32.8 °F 28.4 °F 70% 30.16 in 10.0 mi SW 5.8 mph - N/A   Overcast
4:15 PM 37.4 °F 31.4 °F 26.6 °F 65% 30.15 in 10.0 mi SW 8.1 mph - N/A   Overcast
4:35 PM 37.4 °F 30.3 °F 26.6 °F 65% 30.15 in 10.0 mi SW 10.4 mph - N/A   Overcast
4:55 PM 37.4 °F 30.8 °F 26.6 °F 65% 30.14 in 10.0 mi SW 9.2 mph - N/A   Overcast
5:15 PM 35.6 °F 28.6 °F 26.6 °F 70% 30.13 in 10.0 mi SW 9.2 mph - N/A   Overcast
5:35 PM 35.6 °F 28.6 °F 28.4 °F 75% 30.13 in 10.0 mi SW 9.2 mph - N/A   Overcast
5:55 PM 35.6 °F 29.9 °F 28.4 °F 75% 30.13 in 10.0 mi SW 6.9 mph - N/A   Overcast
6:15 PM 35.6 °F 29.9 °F 28.4 °F 75% 30.13 in 10.0 mi SW 6.9 mph - N/A   Overcast
6:35 PM 35.6 °F 29.9 °F 28.4 °F 75% 30.12 in 10.0 mi SW 6.9 mph - N/A   Overcast
6:55 PM 35.6 °F 28.6 °F 28.4 °F 75% 30.11 in 10.0 mi SW 9.2 mph - N/A   Overcast
7:15 PM 35.6 °F 29.2 °F 28.4 °F 75% 30.10 in 10.0 mi SW 8.1 mph - N/A   Overcast
7:35 PM 35.6 °F 29.9 °F 28.4 °F 75% 30.10 in 10.0 mi WSW 6.9 mph - N/A   Overcast
7:55 PM 35.6 °F 30.7 °F 28.4 °F 75% 30.10 in 10.0 mi SW 5.8 mph - N/A   Overcast
8:15 PM 35.6 °F 30.7 °F 28.4 °F 75% 30.10 in 10.0 mi SW 5.8 mph - N/A   Overcast
8:35 PM 35.6 °F 29.9 °F 28.4 °F 75% 30.09 in 10.0 mi WSW 6.9 mph - N/A   Overcast
8:55 PM 35.6 °F 30.7 °F 30.2 °F 81% 30.09 in 10.0 mi SW 5.8 mph - N/A   Overcast
9:15 PM 33.8 °F 27.7 °F 30.2 °F 87% 30.08 in 10.0 mi SW 6.9 mph - N/A   Overcast
9:35 PM 35.6 °F 29.9 °F 30.2 °F 81% 30.09 in 10.0 mi SW 6.9 mph - N/A   Overcast
9:55 PM 35.6 °F 29.9 °F 30.2 °F 81% 30.08 in 10.0 mi West 6.9 mph - N/A   Overcast
10:15 PM 33.8 °F 28.6 °F 30.2 °F 87% 30.09 in 10.0 mi West 5.8 mph - N/A   Overcast
10:35 PM 33.8 °F 29.6 °F 30.2 °F 87% 30.08 in 10.0 mi West 4.6 mph - N/A   Overcast
10:55 PM 33.8 °F 29.6 °F 30.2 °F 87% 30.08 in 10.0 mi West 4.6 mph - N/A   Overcast
11:15 PM 33.8 °F 28.6 °F 30.2 °F 87% 30.08 in 10.0 mi West 5.8 mph - N/A   Overcast
11:35 PM 33.8 °F 27.7 °F 30.2 °F 87% 30.08 in 10.0 mi WNW 6.9 mph - N/A   Overcast
11:55 PM 33.8 °F 25.8 °F 28.4 °F 81% 30.07 in 10.0 mi WNW 10.4 mph 17.3 mph N/A   Overcast